Flag for Burundi Weather past 2 weeks in Muyinga, Burundi

Now
64 °F

Broken clouds.


Feels Like: 64 °F
Forecast: 59 / 81 °F
Wind: 7 mph from Southeast

Location: Kigali Airport

Current Time: Sep 24, 2014 at 7:10:44 AM

Latest Report: Sep 24, 2014 at 6:30 AM


Visibility: N/A

Pressure: 30.18 "Hg

Humidity: 83%

Dew point: 59 °F

Location of MuyingaLocation

Historic Weather in Muyinga — Graph

°F

Muyinga temperature yesterday

Maximum temperature yesterday: 81 °F (at 2:00 PM)
Minimum temperature yesterday: 66 °F (at 2:30 AM)
Average temperature yesterday: 72 °F

Past Weeks' High & Low Weather Summary

 TemperatureHumidityPressure
High86 °F (Sep 12, 3:00 PM)100% (Sep 9, 6:00 AM)30.24 "Hg (Sep 9, 6:00 AM)
Low52 °F (Sep 11, 2:00 AM)32% (Sep 12, 5:30 PM)30.01 "Hg (Sep 10, 4:00 PM)
Average71 °F73%30.12 "Hg
* Reported Sep 9 6:00 AM — Sep 24 6:00 AM, Muyinga, Weather by CustomWeather, © 2014

Note: Actual official high and low records may vary slightly from our data, if they occured in-between our weather recording intervals... More about our weather records

Advertising

Muyinga weather history for previous 24 hours

 ConditionsComfort  
Time TempWeatherWind HumidityBarometerVisibility
6:00 AM
Sep 24
64 °FBroken clouds.3 mph83%30.12 "HgN/A
5:30 AM63 °FPartly cloudy.No wind88%30.12 "HgN/A
5:00 AM64 °FPassing clouds.No wind83%30.09 "HgN/A
4:30 AM64 °FPassing clouds.5 mph83%30.09 "HgN/A
2:30 AM64 °FPassing clouds.3 mph78%30.09 "HgN/A
1:30 AM64 °FPassing clouds.3 mph78%30.09 "HgN/A
1:00 AM64 °FPassing clouds.6 mph78%30.09 "HgN/A
12:30 AM66 °FPassing clouds.7 mph73%30.09 "HgN/A
12:00 AM66 °FPassing clouds.6 mph73%30.12 "HgN/A
11:30 PM
Sep 23
66 °FPassing clouds.5 mph73%30.12 "HgN/A
11:00 PM68 °FPassing clouds.6 mph69%30.15 "HgN/A
10:00 PM70 °FPassing clouds.3 mph69%30.15 "HgN/A
9:30 PM70 °FPassing clouds.No wind64%30.15 "HgN/A
9:00 PM70 °FPassing clouds.3 mph64%30.12 "HgN/A
8:30 PM72 °FPassing clouds.3 mph57%30.12 "HgN/A
8:00 PM73 °FPassing clouds.5 mph57%30.12 "HgN/A
7:30 PM73 °FPassing clouds.No wind53%30.12 "HgN/A
7:00 PM73 °FPassing clouds.3 mph57%30.09 "HgN/A
6:30 PM77 °FPassing clouds.3 mph51%30.09 "HgN/A
6:00 PM77 °FPassing clouds.5 mph47%30.07 "HgN/A
5:30 PM77 °FScattered clouds.3 mph47%30.07 "HgN/A
5:00 PM79 °FScattered clouds.6 mph45%30.07 "HgN/A
4:30 PM79 °FScattered clouds.7 mph45%30.04 "HgN/A
4:00 PM81 °FScattered clouds.10 mph42%30.04 "HgN/A
3:30 PM81 °FPartly sunny.9 mph42%30.04 "HgN/A
3:00 PM81 °FPartly sunny.8 mph42%30.04 "HgN/A
2:30 PM81 °FPartly sunny.8 mph45%30.04 "HgN/A
2:00 PM81 °FPartly sunny.7 mph45%30.07 "HgN/A
1:30 PM79 °FPartly sunny.6 mph48%30.09 "HgN/A
12:30 PM79 °FPartly sunny.9 mph51%30.12 "HgN/A
12:00 PM79 °FScattered clouds.9 mph51%30.15 "HgN/A
11:30 AM77 °FScattered clouds.9 mph54%30.15 "HgN/A
11:00 AM77 °FScattered clouds.7 mph54%30.18 "HgN/A
10:00 AM75 °FScattered clouds.7 mph54%30.21 "HgN/A
9:30 AM72 °FScattered clouds.7 mph69%30.21 "HgN/A
9:00 AM72 °FScattered clouds.5 mph69%30.18 "Hg5 mi
8:30 AM70 °FScattered clouds.5 mph78%30.18 "Hg5 mi
8:00 AM70 °FScattered clouds.No wind83%30.15 "Hg5 mi
7:30 AM66 °FScattered clouds.No wind88%30.15 "Hg5 mi
7:00 AM66 °FScattered clouds.No wind83%30.15 "Hg5 mi
Weather by CustomWeather, © 2014

See weather overviewHow to use our weather pages